Regional Weather Roundup
Issued by NWS

Home | Current Version | Previous Version | Text Only | Print | Product List | Glossary Off
Versions: 1 2 3 4 5 6 7 8 9 10 11 12 13 14 15 16 17 18 19 20 21 22 23 24 25 26 27 28 29 30 31 32 33 34 35 36 37 38 39 40 41 42 43 44 45 46 47 48 49 50

000
ASUS43 KLOT 282300
RWRIL

ILLINOIS REGIONAL WEATHER ROUNDUP
NATIONAL WEATHER SERVICE CHICAGO/ROMEOVILLE IL
500 PM CST WED JAN 28 2015

NOTE: "FAIR" INDICATES FEW OR NO CLOUDS BELOW 12,000 FEET WITH NO
SIGNIFICANT WEATHER AND/OR OBSTRUCTIONS TO VISIBILITY.

* THESE STATIONS ARE NOT UNDER NWS QUALITY CONTROL. THEY ALSO MAY NOT
  REPORT WEATHER SUCH AS PRECIPITATION OR FOG.

ILZ001-002-007-009-015-016-024-290000-
NORTHWEST ILLINOIS

CITY           SKY/WX    TMP DP  RH WIND       PRES   REMARKS
MOLINE         MOCLDY    36  29  75 SE10      29.87F WCI  28
STERLING*      PTCLDY    34  28  80 SE14      29.93F WCI  24
$$

ILZ003-004-008-010-011-017-018-290000-
NORTH CENTRAL ILLINOIS

CITY           SKY/WX    TMP DP  RH WIND       PRES   REMARKS
ROCKFORD       CLOUDY    33  24  69 SE17G31   29.97F WCI  22
$$

ILZ005-006-012>014-019>023-290000-
NORTHEAST ILLINOIS

CITY           SKY/WX    TMP DP  RH WIND       PRES   REMARKS
CHICAGO-OHARE  CLOUDY    32  22  66 SE20      30.02F WCI  20
CHICAGO-MIDWAY CLOUDY    34  22  61 SE15G22   30.04F WCI  24
AURORA         MOCLDY    33  23  66 SE17      30.00F WCI  22
WAUKEGAN       PTCLDY    31  23  72 SE15G21   30.01F WCI  20
DUPAGE AIRPORT MOCLDY    33  22  63 SE13G24   30.00F WCI  24
WHEELING       PTCLDY    33  21  61 SE13      30.04F WCI  24
NORTHERLY ISL    N/A     32  23  70 SE18        N/A  WCI  20
$$

LMZ740>746-290000-
SOUTHERN LAKE MICHIGAN

STATION/POSITION SKY/WX   TEMP    WIND        PRES    VSBY  WAVE
                          AIR SEA DIR/SP/G                  HT/PER
                          (F)     (DEG/KT/KT) (MB)    (MI)  (FT/S)
WAUKEGAN HARBOR            32     150/ 21/ 26   N/A
HARRISON CRIB              32     160/ 17/ 23   N/A
BURNHAM HARBOR             32     140/ 16       N/A
CALUMET HARBOR             33     140/ 14/ 18   N/A
MICHIGAN CITY              31     120/ 11/ 17   N/A
$$

ILZ025>027-034>036-040-047-049-050-058-095>099-290000-
WEST-CENTRAL ILLINOIS

CITY           SKY/WX    TMP DP  RH WIND       PRES   REMARKS
QUINCY         CLOUDY    44  31  60 S17G23    29.85F
$$

ILZ028>032-037-038-041>044-048-051>054-059>061-290000-
CENTRAL ILLINOIS

CITY           SKY/WX    TMP DP  RH WIND       PRES   REMARKS
DECATUR        PTCLDY    37  29  72 SE16      30.02F WCI  28
PEORIA         MOCLDY    39  30  70 S20G29    29.94F WCI  29
SPRINGFIELD    PTCLDY    40  31  70 SE20G26   29.97F
TAYLORVILLE    NOT AVBL
$$

ILZ033-039-045-046-055>057-062-063-290000-
EAST-CENTRAL ILLINOIS

CITY           SKY/WX    TMP DP  RH WIND       PRES   REMARKS
CHAMPAIGN      PTCLDY    35  27  72 SE18      30.05F WCI  24
MATTOON        CLEAR     36  25  64 SE16      30.05F WCI  26
$$

ILZ079-100>102-290000-
SOUTHWEST ILLINOIS

CITY           SKY/WX    TMP DP  RH WIND       PRES   REMARKS
ALTON          PTCLDY    45  30  57 S14G21    29.99F
BELLEVILLE     PTCLDY    45  33  62 SE10      30.01F
CAHOKIA*       PTCLDY    46  33  60 SE15G23   29.99F
$$

ILZ064>066-069>071-074>076-080>082-084>086-088>090-092>094-290000-
SOUTH-CENTRAL ILLINOIS

CITY           SKY/WX    TMP DP  RH WIND       PRES   REMARKS
CARBONDALE     CLEAR     44  30  57 S10       30.09F
MARION         PTCLDY    46  32  57 S12G17    30.11F
MT. VERNON     CLEAR     45  30  57 SE9       30.09F
$$

ILZ067-068-072-073-078-083-087-091-290000-
SOUTHEAST ILLINOIS

CITY           SKY/WX    TMP DP  RH WIND       PRES   REMARKS
LAWRENCEVILLE  PTCLDY    38  26  62 SE10      30.15  WCI  31
$$

ABBREVIATIONS USED IN REMARKS
   TC - TEMPERATURE IN CELSIUS
  WCI - WIND CHILL INDEX
   HX - HEAT INDEX
  VSB - VISIBILITY
$$



USA.gov is the U.S. government's official web portal to all federal, state and local government web resources and services.